AirNav   ProFlight Series 2 Aviation Headset
 
 607 users online  

PN03 Abington Memorial Hospital Heliport
Abington, Pennsylvania, USA

GOING TO ABINGTON?


FAA INFORMATION EFFECTIVE 18 JUNE 2020

Location

FAA Identifier: PN03
Lat/Long: 40-07-09.2600N 075-07-11.5400W
40-07.154333N 075-07.192333W
40.1192389,-75.1198722
(estimated)
Elevation: 436 ft. / 133 m (estimated)
Variation: 12W (1995)
Time zone: UTC -4 (UTC -5 during Standard Time)
Zip code: 19001

Heliport Operations

Heliport use: Private use. Permission required prior to landing
Activation date: 05/1996
Control tower: no
ARTCC: NEW YORK CENTER
FSS: WILLIAMSPORT FLIGHT SERVICE STATION
Attendance: CONTINUOUS
Wind indicator: lighted
Segmented circle: no
Lights: FOR PERIMETER LGTS CALL 215-481-2764.

Heliport Communications

WX ASOS at PNE (5 nm SE): 121.15 (215-677-0146)
WX AWOS-3 at LOM (7 nm W): 118.925 (215-646-1068)
WX ASOS at DYL (13 nm N): 118.875 (215-345-0392)
WX ASOS at PHL (16 nm S): PHONE 215-492-9617
WX ASOS at VAY (16 nm SE): 119.325 (609-267-1176)
WX ASOS at TTN (17 nm NE): 126.775 (609-538-8690)
WX AWOS-3 at CKZ (18 nm NW): 126.325 (215-257-7291)

Nearby radio navigation aids

VOR radial/distance  VOR name  Freq  Var
ARDr240/12.6YARDLEY VOR/DME108.2010W
PTWr116/21.1POTTSTOWN VORTAC116.5009W
GXUr297/24.9MC GUIRE VORTAC110.6012W
MXEr074/28.0MODENA VORTAC113.2009W
RBVr270/29.1ROBBINSVILLE VORTAC113.8010W
OODr026/30.2WOODSTOWN VORTAC112.8010W
SBJr222/32.8SOLBERG VOR/DME112.9010W
DQOr050/34.7DUPONT VORTAC114.0010W
VCNr359/35.6CEDAR LAKE VOR/DME115.2010W
CYNr310/36.5COYLE VORTAC113.4010W
ETXr146/37.9EAST TEXAS VOR/DME110.2009W
FJCr167/39.5ALLENTOWN VORTAC117.5010W

 
NDB name  Hdg/Dist  Freq  Var  ID
AMBLER105/7.627512WING .. -. --.
LAKEHURST288/36.339611WNEL -. . .-..

Heliport Services

Runway Information

Helipad H1

Dimensions: 48 x 48 ft. / 15 x 15 m
Surface: concrete
ROOFTOP.
Runway edge lights: PERI
Runway edge markings: RED WITH WHITE HOSPITAL CROSS; RED H; WHITE BORDERLINE & 15 INCHES.
Latitude: 40-07.154333N
Longitude: 075-07.192333W
Elevation: 436.0 ft.
Traffic pattern: leftleft
Markings: NSTD

Heliport Ownership and Management from official FAA records

Ownership: Privately-owned
Owner: ABINGTON MEMORIAL HOSPITAL
1200 OLD YORK RD
ABINGTON, PA 19001
Phone 215-481-2000
Manager: RICHARD SZATKOWSKI
1200 OLD YORK RD
ABINGTON, PA 19001
Phone 215-481-2764

Additional Remarks

FATO 65 X 65 FT. APCH 250 & 340. DEP 070 & 160.
FOR CD CTC PHILADELPHIA APCH AT 800-354-9884.

Instrument Procedures

There are no published instrument procedures at PN03.

Some nearby airports with instrument procedures:

KPNE - Northeast Philadelphia Airport (5 nm SE)
KLOM - Wings Field Airport (7 nm W)
KDYL - Doylestown Airport (13 nm N)
N10 - Perkiomen Valley Airport (15 nm W)
KPHL - Philadelphia International Airport (16 nm S)
KVAY - South Jersey Regional Airport (16 nm SE)
KTTN - Trenton Mercer Airport (17 nm NE)
KCKZ - Pennridge Airport (18 nm NW)
N14 - Flying W Airport (18 nm SE)
 
Loc | Ops | Rwys | IFR | FBO | Links
Com | Nav | Svcs | Stats | Notes
Area around PN03 (Abington Memorial Hospital Heliport)
 
Road maps at: MapQuest Bing Google
 
Aerial photo
No photo
 
Sectional chart

 
Airport distance calculator
Flying to Abington Memorial Hospital Heliport? Find the distance to fly.

From to PN03

Sunrise and sunset
Times for 11-Jul-2020
 Local
(UTC-4)
 Zulu
(UTC)
Morning civil twilight05:1009:10
Sunrise05:4309:43
Sunset20:2900:29
Evening civil twilight21:0201:02

Current date and time
Zulu (UTC)  11-Jul-2020 04:25:38
Local (UTC-4)  11-Jul-2020 00:25:38
 
METAR
KPNE 
5nm SE 
110354Z AUTO 24009KT 10SM FEW010 BKN014 OVC020 23/22 A2970 RMK AO2 SLP055 T02280222
KLOM 
7nm W 
110355Z AUTO 23010KT 10SM SCT010 BKN016 OVC024 23/22 A2970 RMK AO2 P0001 T02260219
KDYL 
13nm N 
110354Z AUTO 23009G14KT 10SM OVC007 23/21 A2967 RMK AO2 RAE03B28E43 CIG 004V013 SLP042 P0000 T02280211
KPHL 
16nm S 
110354Z 23015KT 10SM BKN032 BKN110 24/21 A2971 RMK AO2 SLP062 T02440211
KTTN 
17nm NE 
ASOS 133.70 609-538-8690
110353Z AUTO 22010KT 10SM BKN007 OVC012 22/22 A2966 RMK AO2 RAB34E52 SLP038 P0001 T02220217
KVAY 
17nm SE 
ASOS 119.325 609-267-1176
110354Z AUTO 23006KT 10SM OVC020 23/22 A2970 RMK AO2 SLP057 T02330222
KCKZ 
18nm NW 
110355Z AUTO 25008KT 3SM BR OVC008 22/22 A2969 RMK AO2
TAF
KPNE 
5nm SE 
110215Z 1102/1124 23010KT P6SM OVC020 TEMPO 1102/1105 3SM -SHRA OVC007 FM110500 26006KT P6SM BKN025 FM110900 22006KT P6SM SCT080 FM111300 21008KT P6SM BKN080
KPHL 
16nm S 
110111Z 1101/1206 25010KT P6SM OVC025 TEMPO 1101/1103 3SM -SHRA OVC015 FM110500 22008KT P6SM BKN025 FM110900 21006KT P6SM SCT080 FM111300 21010KT P6SM BKN080 FM111800 23012G20KT P6SM SCT050 FM120000 22004KT P6SM FEW020
KTTN 
17nm NE 
110214Z 1102/1124 36006KT P6SM OVC025 TEMPO 1102/1105 3SM -SHRA BKN006 OVC012 FM110600 27006KT P6SM BKN025 FM110900 23006KT P6SM SCT080 FM111300 22006KT P6SM BKN080
NOTAMs
Click for the latest NOTAMs
NOTAMs are issued by the DoD/FAA and will open in a separate window not controlled by AirNav.

 

 
 

Would you like to see your business listed on this page?

 If your business provides an interesting product or service to pilots, flight crews, aircraft, or users of the Abington Memorial Hospital Heliport, you should consider listing it here.  To start the listing process, click on the button below
 
Add a business
 

Other Pages about Abington Memorial Hospital Heliport

Update a link
 
Copyright © AirNav, LLC. All rights reserved. Privacy Policy  Contact